KD2BVA Weather Reports


time (UTC)temp
F
wind
direction
speed
knots
gust
knots
rain 1hr
in
rain 24hr
in
rain mn
in
humidity
%
barometer
mb
20260504130527 51 242 0.9 2.6 0.00 0.00 0.00 64 993.8
20260504050538 47 278 0.0 0.9 0.00 0.00 0.00 74 995.0
20260504045526 47 273 0.0 1.7 0.00 0.00 0.00 74 995.0
20260504045036 47 219 0.0 4.3 0.00 0.00 0.00 74 995.1
20260504044526 46 236 0.9 4.3 0.00 0.00 0.00 74 995.2
20260504044027 46 238 0.0 2.6 0.00 0.00 0.00 74 995.2
20260504043539 46 239 0.0 2.6 0.00 0.00 0.00 74 995.2
20260504043047 46 231 0.0 1.7 0.00 0.00 0.00 73 995.2
20260504042529 46 252 0.0 0.9 0.00 0.00 0.00 73 995.4
20260504042036 46 259 0.0 0.0 0.00 0.00 0.00 73 995.4
20260504041545 46 259 0.0 1.7 0.00 0.00 0.00 72 995.4
20260504041026 46 99 0.0 0.0 0.00 0.00 0.00 72 995.4
20260504040538 45 266 0.0 0.0 0.00 0.00 0.00 71 995.4
20260504040046 45 266 0.0 0.0 0.00 0.00 0.00 70 995.5
20260504035527 45 266 0.0 1.7 0.00 0.00 0.00 70 995.4
20260504035037 44 266 0.9 1.7 0.00 0.00 0.00 70 995.5
20260504034538 44 235 0.0 0.0 0.00 0.00 0.00 68 995.4
20260504034027 45 235 0.0 0.0 0.00 0.00 0.00 66 995.3
20260504033539 45 235 0.0 0.9 0.00 0.00 0.00 65 995.3
20260504033038 45 235 0.0 0.9 0.00 0.00 0.00 64 995.3
20260504032527 45 235 0.0 0.9 0.00 0.00 0.00 63 995.3
20260504032038 45 235 0.0 0.9 0.00 0.00 0.00 62 995.3
20260504031539 45 235 0.0 0.9 0.00 0.00 0.00 62 995.2
20260504031026 45 277 0.0 2.6 0.00 0.00 0.00 62 995.2
20260504030528 45 254 0.9 2.6 0.00 0.00 0.00 62 995.2
20260504030036 44 222 0.0 0.9 0.00 0.00 0.00 60 995.2
20260504025526 43 238 0.0 0.9 0.00 0.00 0.00 60 995.2
20260504025025 43 264 0.0 0.9 0.00 0.00 0.00 59 995.1
20260504024529 42 264 0.0 0.9 0.00 0.00 0.00 59 995.1
20260504024039 42 264 0.0 0.0 0.00 0.00 0.00 59 995.1
20260504023550 41 264 0.0 0.0 0.00 0.00 0.00 59 995.1
20260504023028 41 264 0.0 0.0 0.00 0.00 0.00 59 995.1
20260504022537 41 264 0.0 0.0 0.00 0.00 0.00 59 995.2
20260504022047 41 264 0.0 0.0 0.00 0.00 0.00 59 995.1
20260504021526 41 264 0.0 0.0 0.00 0.00 0.00 59 995.0
20260504021037 42 264 0.0 0.0 0.00 0.00 0.00 57 995.1
20260504020536 42 264 0.0 0.0 0.00 0.00 0.00 58 995.1
20260504020024 43 264 0.0 0.0 0.00 0.00 0.00 55 995.1
20260504015534 43 264 0.0 0.0 0.00 0.00 0.00 54 995.1
20260504015102 44 264 0.0 0.0 0.00 0.00 0.00 53 995.2
20260504014609 44 264 0.0 0.0 0.00 0.00 0.00 53 995.2
20260504014057 45 264 0.0 0.9 0.00 0.00 0.00 51 995.2
20260504013603 45 264 0.0 0.9 0.00 0.00 0.00 50 995.1
20260504013108 45 264 0.0 0.9 0.00 0.00 0.00 51 995.1
20260504012544 45 264 0.0 1.7 0.00 0.00 0.00 50 995.1
20260504012101 46 264 0.0 1.7 0.00 0.00 0.00 49 995.1
20260504011608 46 326 0.0 0.0 0.00 0.00 0.00 48 995.0
20260504011044 47 326 0.0 0.0 0.00 0.00 0.00 45 994.9
20260504010603 48 326 0.0 1.7 0.00 0.00 0.00 43 994.9
20260504010105 48 326 0.0 5.2 0.00 0.00 0.00 42 994.9
20260504005543 48 200 0.9 5.2 0.00 0.00 0.00 43 994.8
20260504005031 48 269 0.9 2.6 0.00 0.00 0.00 43 994.7
20260504004541 48 262 0.9 2.6 0.00 0.00 0.00 42 994.7
20260504004021 48 113 0.0 1.7 0.00 0.00 0.00 42 994.6
20260504003534 48 235 0.0 1.7 0.00 0.00 0.00 42 994.6
20260504003042 48 224 0.0 3.5 0.00 0.00 0.00 41 994.5
20260504002524 48 137 0.0 3.5 0.00 0.00 0.00 42 994.4
20260504002035 49 78 0.0 1.7 0.00 0.00 0.00 41 994.3
20260504001544 50 251 0.0 0.9 0.00 0.00 0.00 40 994.3
20260504001025 51 251 0.0 1.7 0.00 0.00 0.00 38 994.1
20260504000535 51 251 0.0 1.7 0.00 0.00 0.00 36 994.1
20260504000043 52 237 0.0 3.5 0.00 0.00 0.00 36 994.0
20260503235525 52 252 0.9 3.5 0.00 0.00 0.00 35 993.9
20260503235035 52 266 0.9 3.5 0.00 0.00 0.00 35 993.9
20260503234546 53 231 0.9 3.5 0.00 0.00 0.00 33 993.8
20260503234023 53 119 0.9 4.3 0.00 0.00 0.00 32 993.7
20260503233533 53 341 0.9 5.2 0.00 0.00 0.00 32 993.7
20260503233025 53 244 0.9 3.5 0.00 0.00 0.00 31 993.6
20260503232531 54 27 0.9 3.5 0.00 0.00 0.00 28 993.5
20260503232038 54 271 0.0 5.2 0.00 0.00 0.00 28 993.4
20260503231545 55 280 0.9 5.2 0.00 0.00 0.00 27 993.3
20260503231023 55 262 0.0 4.3 0.00 0.00 0.00 26 993.2
20260503230532 56 269 1.7 5.2 0.00 0.00 0.00 25 993.2
20260503230037 57 253 0.9 4.3 0.00 0.00 0.00 26 993.1
20260503225536 58 287 0.9 5.2 0.00 0.00 0.00 25 993.1
20260503225023 58 129 1.7 5.2 0.00 0.00 0.00 24 993.0
20260503224549 59 101 0.9 3.5 0.00 0.00 0.00 24 993.0
20260503224027 59 104 0.0 7.8 0.00 0.00 0.00 27 992.9
20260503223538 59 238 1.7 7.8 0.00 0.00 0.00 25 992.9
20260503223043 59 114 0.9 6.1 0.00 0.00 0.00 27 992.9
20260503222551 59 96 2.6 6.1 0.00 0.00 0.00 26 992.9
20260503222028 59 347 3.5 6.1 0.00 0.00 0.00 26 992.8
20260503221534 59 165 0.9 2.6 0.00 0.00 0.00 29 992.9
20260503221028 59 217 0.9 1.7 0.00 0.00 0.00 30 992.9
20260503220539 59 94 0.0 2.6 0.00 0.00 0.00 31 992.9
20260503220047 60 94 0.9 2.6 0.00 0.00 0.00 30 992.8
20260503215527 60 115 0.9 2.6 0.00 0.00 0.00 29 992.9
20260503215034 60 89 0.9 2.6 0.00 0.00 0.00 28 992.9
20260503214539 61 284 0.9 2.6 0.00 0.00 0.00 28 992.9
20260503214048 60 263 0.9 3.5 0.00 0.00 0.00 29 993.0
20260503213530 60 115 0.9 3.5 0.00 0.00 0.00 29 993.0
20260503213039 60 278 1.7 3.5 0.00 0.00 0.00 30 993.0
20260503212519 60 167 0.9 5.2 0.00 0.00 0.00 31 993.0
20260503212029 60 285 0.9 3.5 0.00 0.00 0.00 32 993.0
20260503211540 60 326 1.7 3.5 0.00 0.00 0.00 31 993.1
20260503211029 60 240 0.9 5.2 0.00 0.00 0.00 31 993.2
20260503210550 59 255 0.9 5.2 0.00 0.00 0.00 33 993.0
20260503210100 58 115 0.9 3.5 0.00 0.00 0.00 34 993.0
20260503205543 58 290 0.9 3.5 0.00 0.00 0.00 35 993.2
20260503205051 58 289 0.9 5.2 0.00 0.00 0.00 34 993.2
20260503204559 57 65 1.7 8.7 0.00 0.00 0.00 33 993.3
20260503204024 57 255 2.6 8.7 0.00 0.00 0.00 32 993.4
20260503203525 57 14 0.9 7.0 0.00 0.00 0.00 37 993.4
20260503203034 56 103 0.9 7.0 0.00 0.00 0.00 38 993.4
20260503202543 55 131 1.7 3.5 0.00 0.00 0.00 36 993.6
20260503202024 55 56 0.9 3.5 0.00 0.00 0.00 37 993.5
20260503201535 55 71 0.9 4.3 0.00 0.00 0.00 36 993.6
20260503201044 55 79 0.9 7.0 0.00 0.00 0.00 37 993.6
20260503200527 55 255 0.9 5.2 0.00 0.00 0.00 38 993.7
20260503200036 54 349 1.7 10.4 0.00 0.00 0.00 40 993.7
20260503195546 54 309 2.6 10.4 0.00 0.00 0.00 38 993.8
20260503195026 53 311 0.9 7.0 0.00 0.00 0.00 38 993.8
20260503194538 53 274 2.6 8.7 0.00 0.00 0.00 37 993.9
20260503194030 54 330 2.6 8.7 0.00 0.00 0.00 37 993.9
20260503193539 54 17 0.9 4.3 0.00 0.00 0.00 38 993.9
20260503193027 54 248 1.7 7.8 0.00 0.00 0.00 38 994.0
20260503192528 54 235 0.9 7.8 0.00 0.00 0.00 39 994.1
20260503192038 54 56 1.7 4.3 0.00 0.00 0.00 38 994.0
20260503191527 53 298 0.9 5.2 0.00 0.00 0.00 40 994.1
20260503191028 54 87 0.9 2.6 0.00 0.00 0.00 38 994.2
20260503190540 54 156 0.9 2.6 0.00 0.00 0.00 41 994.2
20260503190031 53 19 0.9 4.3 0.00 0.00 0.00 43 994.4
20260503185532 53 288 1.7 4.3 0.00 0.00 0.00 41 994.3
20260503185021 53 271 0.9 6.1 0.00 0.00 0.00 41 994.4
20260503184522 53 6 1.7 6.1 0.00 0.00 0.00 40 994.5
20260503184033 53 252 0.0 2.6 0.00 0.00 0.00 43 994.6
20260503183544 53 226 0.9 7.0 0.00 0.00 0.00 40 994.5
20260503183020 53 271 0.9 1.7 0.00 0.00 0.00 42 994.6
20260503182530 52 288 0.0 4.3 0.00 0.00 0.00 43 994.7
20260503182040 52 65 0.9 5.2 0.00 0.00 0.00 43 994.7
20260503181521 52 245 1.7 5.2 0.00 0.00 0.00 44 994.8
20260503181031 52 238 0.9 4.3 0.00 0.00 0.00 42 994.7
20260503180538 52 308 0.9 4.3 0.00 0.00 0.00 41 994.8
20260503180037 52 20 0.9 4.3 0.00 0.00 0.00 43 994.8
20260503175528 51 239 1.7 6.1 0.00 0.00 0.00 42 994.8
20260503175037 51 33 0.9 6.1 0.00 0.00 0.00 41 994.8
20260503174539 51 58 1.7 3.5 0.00 0.00 0.00 42 994.9
20260503174028 51 236 0.9 2.6 0.00 0.00 0.00 44 994.9
20260503173530 51 90 0.0 3.5 0.00 0.00 0.00 43 994.9
20260503173038 50 285 0.9 3.5 0.00 0.00 0.00 43 995.0
20260503172525 50 38 0.9 2.6 0.00 0.00 0.00 45 995.1
20260503172024 51 285 0.0 2.6 0.00 0.00 0.00 43 995.0
20260503171535 51 141 0.0 2.6 0.00 0.00 0.00 44 995.1
20260503171024 50 311 0.0 2.6 0.00 0.00 0.00 45 995.1
20260503170525 50 75 0.9 3.5 0.00 0.00 0.00 43 995.1
20260503150527 50 245 0.9 5.2 0.00 0.00 0.00 50 995.5